Location: Rostock
(54.0884°N, 12.1234°E)
Time: 07:29:05
(UTC+01:00)

ISS - Pass Details

Date: 12 November 2017
Orbit: 402 x 407 km, 51.6° (Epoch: 19 November)

Event Time Altitude Azimuth Distance (km) Brightness Sun altitude
Exits shadow 04:20:03 16° 106° (ESE) 1,152 -0.9 -28.2°
Drops below altitude 10° 04:20:49 10° 103° (ESE) 1,457 -0.2 -28.1°
Sets 04:22:55 0° 99° (E) 2,316 1.1 -27.8°
